BAW461 LEMD-EGLL

Flight info

Callsign BAW461
Flight time 1h 44m
Altitude 34000
Route SIE N858 DGO N867 NENEM DCT DIDIG UP87 ROXOG
Aircraft B789/H-SDE1E2E3FGHIJ2J3J4J5M1RWXY/LB1D1

Departure

Time 2026-05-04 15:34
Airport Adolfo Suárez Madrid–Barajas Airport (LEMD)

Arrival

Time 2026-05-04 17:19
Airport London Heathrow Airport (EGLL)
Time Latitude Longitude Altitude Speed Heading
2026-05-04 14:52 40.49468 -3.56867 1989 ft 0 kts 90°
2026-05-04 15:24 40.49468 -3.56894 1988 ft 2 kts 90°
2026-05-04 15:24 40.49468 -3.56937 1986 ft 2 kts 83°
2026-05-04 15:25 40.49464 -3.56957 1985 ft 2 kts 65°
2026-05-04 15:25 40.49456 -3.56976 1984 ft 2 kts 48°
2026-05-04 15:25 40.49443 -3.56989 1985 ft 2 kts 31°
2026-05-04 15:26 40.49412 -3.57001 1985 ft 2 kts 359°
2026-05-04 15:26 40.49410 -3.57001 1985 ft 0 kts 357°
2026-05-04 15:30 40.49471 -3.57006 1985 ft 13 kts 356°
2026-05-04 15:30 40.49891 -3.57012 1986 ft 22 kts 360°
2026-05-04 15:31 40.50026 -3.56866 1986 ft 15 kts 90°
2026-05-04 15:31 40.50027 -3.56708 1986 ft 18 kts 89°
2026-05-04 15:32 40.50022 -3.56184 1987 ft 13 kts 117°
2026-05-04 15:32 40.49873 -3.56149 1986 ft 19 kts 180°
2026-05-04 15:33 40.49584 -3.56139 1987 ft 15 kts 158°
2026-05-04 15:34 40.49481 -3.55775 1989 ft 24 kts 140°
2026-05-04 15:34 40.49215 -3.55510 1987 ft 88 kts 144°
2026-05-04 15:34 40.47474 -3.53649 2663 ft 195 kts 144°
2026-05-04 15:35 40.45307 -3.51397 4564 ft 203 kts 147°
2026-05-04 15:35 40.44077 -3.50279 5199 ft 228 kts 151°
2026-05-04 15:35 40.42688 -3.49030 5711 ft 256 kts 147°
2026-05-04 15:36 40.39695 -3.45961 7514 ft 282 kts 145°
2026-05-04 15:36 40.38137 -3.44381 8770 ft 285 kts 146°
2026-05-04 15:36 40.36545 -3.42795 9926 ft 288 kts 147°
2026-05-04 15:37 40.34780 -3.41434 10595 ft 307 kts 155°
2026-05-04 15:37 40.32895 -3.40047 11011 ft 335 kts 148°
2026-05-04 15:37 40.31247 -3.37700 11446 ft 369 kts 122°
2026-05-04 15:37 40.30428 -3.34468 12419 ft 380 kts 98°
2026-05-04 15:38 40.30334 -3.30969 13365 ft 389 kts 89°
2026-05-04 15:38 40.30755 -3.27446 14238 ft 396 kts 70°
2026-05-04 15:38 40.32009 -3.24223 15119 ft 400 kts 51°
2026-05-04 15:38 40.33793 -3.21405 15955 ft 405 kts 46°
2026-05-04 15:39 40.35680 -3.18632 16854 ft 411 kts 46°
2026-05-04 15:39 40.37691 -3.15953 17633 ft 413 kts 34°
2026-05-04 15:39 40.42881 -3.13058 19231 ft 407 kts
2026-05-04 15:40 40.45694 -3.13039 19981 ft 403 kts 347°
2026-05-04 15:40 40.48418 -3.13750 20640 ft 405 kts 343°
2026-05-04 15:40 40.51187 -3.14546 21353 ft 409 kts 343°
2026-05-04 15:40 40.53975 -3.15386 22041 ft 413 kts 343°
2026-05-04 15:41 40.56788 -3.16224 22719 ft 417 kts 343°
2026-05-04 15:41 40.59493 -3.17013 23348 ft 421 kts 343°
2026-05-04 15:41 40.62372 -3.17854 23910 ft 425 kts 343°
2026-05-04 15:41 40.65272 -3.18711 24416 ft 429 kts 343°
2026-05-04 15:42 40.68196 -3.19578 24910 ft 433 kts 343°
2026-05-04 15:42 40.71153 -3.20451 25403 ft 437 kts 343°
2026-05-04 15:42 40.74132 -3.21329 25885 ft 441 kts 342°
2026-05-04 15:42 40.77142 -3.22220 26365 ft 444 kts 342°
2026-05-04 15:43 40.80170 -3.23118 26830 ft 448 kts 342°
2026-05-04 15:43 40.83175 -3.24202 27259 ft 446 kts 333°
2026-05-04 15:43 40.85959 -3.25960 27714 ft 442 kts 323°
2026-05-04 15:43 40.88439 -3.28332 28157 ft 438 kts 313°
2026-05-04 15:44 40.90715 -3.31031 28561 ft 441 kts 313°
2026-05-04 15:44 40.92999 -3.33757 29028 ft 444 kts 313°
2026-05-04 15:44 40.95279 -3.36503 29619 ft 443 kts 312°
2026-05-04 15:44 40.97556 -3.39240 30272 ft 440 kts 312°
2026-05-04 15:45 40.99821 -3.41956 30808 ft 439 kts 312°
2026-05-04 15:45 41.02082 -3.44672 31345 ft 438 kts 312°
2026-05-04 15:45 41.04335 -3.47385 31840 ft 437 kts 312°
2026-05-04 15:45 41.06582 -3.50094 32380 ft 436 kts 312°
2026-05-04 15:46 41.09003 -3.52557 32878 ft 443 kts 322°
2026-05-04 15:46 41.11712 -3.54462 33384 ft 450 kts 332°
2026-05-04 15:46 41.14712 -3.55773 33895 ft 458 kts 341°
2026-05-04 15:46 41.17958 -3.56400 33992 ft 474 kts 352°
2026-05-04 15:47 41.21279 -3.56233 33983 ft 480 kts
2026-05-04 15:47 41.24544 -3.55264 33985 ft 484 kts 14°
2026-05-04 15:47 41.27691 -3.53641 33972 ft 485 kts 17°
2026-05-04 15:48 41.33890 -3.50257 33974 ft 485 kts 18°
2026-05-04 15:48 41.43254 -3.45125 33965 ft 486 kts 18°
2026-05-04 15:49 41.49502 -3.41685 33978 ft 486 kts 18°
2026-05-04 15:49 41.55747 -3.38247 33974 ft 485 kts 18°
2026-05-04 15:50 41.61988 -3.34799 33972 ft 485 kts 18°
2026-05-04 15:50 41.68228 -3.31347 33973 ft 486 kts 18°
2026-05-04 15:51 41.74475 -3.27883 33971 ft 486 kts 19°
2026-05-04 15:51 41.80727 -3.24409 33973 ft 486 kts 19°
2026-05-04 15:52 41.86938 -3.20950 33972 ft 486 kts 19°
2026-05-04 15:52 41.93181 -3.17466 33975 ft 485 kts 19°
2026-05-04 15:53 41.99404 -3.13986 33974 ft 484 kts 19°
2026-05-04 15:53 42.05620 -3.10502 33974 ft 484 kts 19°
2026-05-04 15:54 42.11841 -3.07009 33976 ft 484 kts 19°
2026-05-04 15:54 42.18068 -3.03504 33979 ft 486 kts 19°
2026-05-04 15:55 42.24298 -2.99990 33987 ft 486 kts 19°
2026-05-04 15:55 42.30548 -2.96457 33981 ft 487 kts 20°
2026-05-04 15:56 42.36799 -2.92916 33986 ft 487 kts 20°
2026-05-04 15:56 42.43044 -2.89433 33994 ft 482 kts 14°
2026-05-04 15:57 42.46286 -2.88436 34000 ft 477 kts
2026-05-04 15:57 42.49528 -2.88291 34008 ft 472 kts 353°
2026-05-04 15:57 42.56061 -2.88620 33998 ft 473 kts 354°
2026-05-04 15:58 42.62585 -2.88969 34001 ft 472 kts 354°
2026-05-04 15:58 42.69157 -2.89305 33990 ft 472 kts 354°
2026-05-04 15:59 42.75586 -2.89645 34002 ft 472 kts 354°
2026-05-04 15:59 42.82139 -2.89986 34004 ft 471 kts 354°
2026-05-04 16:00 42.88594 -2.90326 33990 ft 472 kts 354°
2026-05-04 16:00 42.95160 -2.90669 34000 ft 475 kts 354°
2026-05-04 16:01 43.01751 -2.91018 34010 ft 472 kts 354°
2026-05-04 16:01 43.08320 -2.91364 34023 ft 472 kts 354°
2026-05-04 16:02 43.14888 -2.91712 34030 ft 473 kts 354°
2026-05-04 16:03 43.24765 -2.92235 34034 ft 474 kts 355°
2026-05-04 16:03 43.31337 -2.92829 34044 ft 470 kts 344°
2026-05-04 16:04 43.37717 -2.94802 34033 ft 470 kts 343°
2026-05-04 16:04 43.47295 -2.97793 34032 ft 471 kts 344°
2026-05-04 16:05 43.53652 -2.99785 34025 ft 471 kts 344°
2026-05-04 16:06 43.63252 -3.02796 34013 ft 472 kts 344°
2026-05-04 16:07 43.76097 -3.06634 34013 ft 474 kts 344°
2026-05-04 16:08 43.89028 -3.10353 34000 ft 474 kts 345°
2026-05-04 16:09 44.05273 -3.14252 34009 ft 480 kts
2026-05-04 16:09 44.11800 -3.12147 34001 ft 485 kts 16°
2026-05-04 16:10 44.18233 -3.09331 33997 ft 484 kts 17°
2026-05-04 16:11 44.31071 -3.03727 33993 ft 483 kts 17°
2026-05-04 16:12 44.50278 -2.95286 33988 ft 484 kts 16°
2026-05-04 16:13 44.63156 -2.89595 33985 ft 485 kts 17°
2026-05-04 16:14 44.76022 -2.83882 33985 ft 484 kts 17°
2026-05-04 16:16 44.92033 -2.76736 33973 ft 484 kts 17°
2026-05-04 16:17 45.08096 -2.69524 33975 ft 486 kts 17°
2026-05-04 16:18 45.20950 -2.63722 33967 ft 485 kts 17°
2026-05-04 16:19 45.37077 -2.56404 33967 ft 488 kts 17°
2026-05-04 16:20 45.52140 -2.49529 33963 ft 486 kts 17°
2026-05-04 16:22 45.68234 -2.42141 33955 ft 487 kts 18°
2026-05-04 16:23 45.87618 -2.33182 33958 ft 489 kts 18°
2026-05-04 16:25 46.07094 -2.24519 33983 ft 488 kts
2026-05-04 16:26 46.30644 -2.18794 33962 ft 490 kts
2026-05-04 16:28 46.47428 -2.14663 33959 ft 489 kts
2026-05-04 16:29 46.70817 -2.08867 33967 ft 487 kts
2026-05-04 16:31 46.87488 -2.04706 33967 ft 485 kts
2026-05-04 16:32 47.07433 -1.99722 33966 ft 484 kts
2026-05-04 16:33 47.20699 -1.96429 33973 ft 483 kts
2026-05-04 16:34 47.30651 -1.93949 33974 ft 485 kts
2026-05-04 16:35 47.40661 -1.93482 33970 ft 484 kts 354°
2026-05-04 16:35 47.50746 -1.94568 33967 ft 484 kts 354°
2026-05-04 16:36 47.60816 -1.95641 33965 ft 483 kts 355°
2026-05-04 16:37 47.67454 -1.94350 33979 ft 485 kts 19°
2026-05-04 16:37 47.70658 -1.92746 33966 ft 486 kts 19°
2026-05-04 16:38 47.83439 -1.86221 33966 ft 485 kts 19°
2026-05-04 16:39 47.99240 -1.78123 33976 ft 485 kts 19°
2026-05-04 16:40 48.12304 -1.74221 33977 ft 485 kts 358°
2026-05-04 16:41 48.29184 -1.74433 33975 ft 485 kts 358°
2026-05-04 16:43 48.46032 -1.74642 33984 ft 484 kts 358°
2026-05-04 16:43 48.56132 -1.74764 33991 ft 485 kts 358°
2026-05-04 16:45 48.76354 -1.75014 33981 ft 482 kts 358°
2026-05-04 16:46 48.93146 -1.75077 33981 ft 483 kts
2026-05-04 16:47 49.06554 -1.74600 33979 ft 483 kts
2026-05-04 16:48 49.19993 -1.74092 33987 ft 483 kts
2026-05-04 16:49 49.33414 -1.73576 33989 ft 482 kts
2026-05-04 16:50 49.46827 -1.73057 33995 ft 482 kts
2026-05-04 16:51 49.56874 -1.72667 33998 ft 481 kts
2026-05-04 16:52 49.70255 -1.71702 33997 ft 482 kts
2026-05-04 16:53 49.80288 -1.70816 33999 ft 481 kts
2026-05-04 16:54 49.93604 -1.69692 33991 ft 480 kts
2026-05-04 16:55 50.06652 -1.65957 33993 ft 481 kts 17°
2026-05-04 16:55 50.12985 -1.62858 33991 ft 481 kts 17°
2026-05-04 16:56 50.28955 -1.55095 32965 ft 479 kts 17°
2026-05-04 16:57 50.32134 -1.53543 32316 ft 478 kts 17°
2026-05-04 16:57 50.38475 -1.50433 30977 ft 478 kts 18°
2026-05-04 16:58 50.48075 -1.45712 28752 ft 485 kts 18°
2026-05-04 16:58 50.51295 -1.44124 27962 ft 487 kts 18°
2026-05-04 16:59 50.57414 -1.39813 26320 ft 487 kts 30°
2026-05-04 17:00 50.69371 -1.29511 22664 ft 484 kts 29°
2026-05-04 17:00 50.77958 -1.21810 20071 ft 466 kts 34°
2026-05-04 17:01 50.83323 -1.16278 18392 ft 455 kts 33°
2026-05-04 17:01 50.88551 -1.10880 16681 ft 443 kts 33°
2026-05-04 17:02 50.93470 -1.05782 15141 ft 428 kts 33°
2026-05-04 17:02 50.98368 -1.00698 13611 ft 415 kts 33°
2026-05-04 17:03 51.00681 -0.98053 13010 ft 403 kts 44°
2026-05-04 17:03 51.02542 -0.94844 12913 ft 392 kts 48°
2026-05-04 17:03 51.06228 -0.88340 12914 ft 397 kts 49°
2026-05-04 17:04 51.09920 -0.81730 12924 ft 399 kts 49°
2026-05-04 17:04 51.13560 -0.75238 11454 ft 389 kts 49°
2026-05-04 17:05 51.17083 -0.68918 10302 ft 369 kts 49°
2026-05-04 17:05 51.19816 -0.64012 9785 ft 343 kts 49°
2026-05-04 17:06 51.22732 -0.58765 9278 ft 314 kts 49°
2026-05-04 17:06 51.24169 -0.56175 9022 ft 300 kts 49°
2026-05-04 17:07 51.26813 -0.51401 8580 ft 282 kts 49°
2026-05-04 17:07 51.27251 -0.50609 8510 ft 281 kts 49°
2026-05-04 17:07 51.29388 -0.46743 8161 ft 278 kts 49°
2026-05-04 17:07 51.30531 -0.44280 7945 ft 276 kts 68°
2026-05-04 17:08 51.31023 -0.41404 7729 ft 262 kts 76°
2026-05-04 17:08 51.31938 -0.36185 7364 ft 256 kts 76°
2026-05-04 17:08 51.32241 -0.34367 7250 ft 255 kts 76°
2026-05-04 17:09 51.32690 -0.31631 7082 ft 251 kts 76°
2026-05-04 17:09 51.33121 -0.29026 6914 ft 236 kts 76°
2026-05-04 17:09 51.33536 -0.26532 6730 ft 229 kts 76°
2026-05-04 17:10 51.34343 -0.21689 6377 ft 217 kts 76°
2026-05-04 17:10 51.35473 -0.14949 5708 ft 210 kts 75°
2026-05-04 17:11 51.35869 -0.12670 5255 ft 215 kts 75°
2026-05-04 17:11 51.36269 -0.10343 4810 ft 219 kts 75°
2026-05-04 17:11 51.37065 -0.05630 4106 ft 218 kts 75°
2026-05-04 17:12 51.37448 -0.03306 3935 ft 213 kts 75°
2026-05-04 17:12 51.39333 -0.00533 3735 ft 189 kts
2026-05-04 17:13 51.42320 -0.03935 3818 ft 201 kts 295°
2026-05-04 17:14 51.44328 -0.10152 3618 ft 209 kts 298°
2026-05-04 17:14 51.45017 -0.12184 3323 ft 207 kts 298°
2026-05-04 17:14 51.46350 -0.16198 2725 ft 204 kts 295°
2026-05-04 17:15 51.46525 -0.18403 2488 ft 198 kts 264°
2026-05-04 17:15 51.46552 -0.22882 2504 ft 202 kts 270°
2026-05-04 17:16 51.46539 -0.27368 2190 ft 188 kts 270°
2026-05-04 17:16 51.46521 -0.33150 1495 ft 164 kts 270°
2026-05-04 17:17 51.46516 -0.34965 1270 ft 162 kts 270°
2026-05-04 17:17 51.46505 -0.40135 533 ft 155 kts 272°
2026-05-04 17:18 51.46497 -0.41854 320 ft 152 kts 273°
2026-05-04 17:18 51.46490 -0.45155 94 ft 117 kts 269°
2026-05-04 17:19 51.46499 -0.46545 96 ft 44 kts 283°
2026-05-04 17:19 51.46606 -0.46862 95 ft 0 kts 356°
2026-05-04 17:20 51.46617 -0.46865 96 ft 5 kts 348°
2026-05-04 17:20 51.46655 -0.47010 95 ft 11 kts 271°
2026-05-04 17:20 51.46655 -0.47143 95 ft 13 kts 269°
2026-05-04 17:21 51.46731 -0.47350 93 ft 12 kts 359°
2026-05-04 17:21 51.46918 -0.47353 92 ft 15 kts 360°
2026-05-04 17:22 51.46972 -0.47369 96 ft 4 kts 315°
2026-05-04 17:22 51.46981 -0.47431 95 ft 7 kts 270°
2026-05-04 17:23 51.46981 -0.47503 92 ft 0 kts 270°